Weather History for KSKA - February, 2013

Change the Weather History Date:

Saturday, February 16, 2013

  Actual Average Record
Temperature  
Mean Temperature 34 °F -  
Max Temperature 42 °F 38 °F 48 °F (2007)
Min Temperature 26 °F 24 °F 8 °F (2006)
Degree Days  
Heating Degree Days 31    
Moisture  
Dew Point 33 °F    
Average Humidity 87    
Maximum Humidity 100    
Minimum Humidity 76    
Precipitation  
Precipitation 0.00 in - - ()
Sea Level Pressure  
Sea Level Pressure 30.02 in    
Wind  
Wind Speed 9 mph (SSW)    
Max Wind Speed 16 mph    
Max Gust Speed -    
Visibility 10 miles    
Events Rain    
Averages and records for this station are not official NWS values.
T = Trace of Precipitation, MM = Missing Value Source: NWS Daily Summary

Daily Weather History Graph

Daily Weather History Graph

Search for Another Location

Airport or City:

Trip Planner

Search our weather history database for the weather conditions in past years. The results will help you decide how hot, cold, wet, or windy it might be!

Date:

Astronomy

Feb. 16, 2013 Rise Set
Actual Time 6:53 AM PST 5:16 PM PST
Civil Twilight 6:22 AM PST 5:47 PM PST
Nautical Twilight 5:46 AM PST 6:23 PM PST
Astronomical Twilight 5:10 AM PST 6:59 PM PST
Moon 9:38 AM PST (2/16) No Moon Set
Length of Visible Light 11h 25m
Length of Day
10h 22m
Waxing Crescent, 40% of the Moon is Illuminated
Feb 16
Waxing Crescent
Feb 17
First Quarter
Feb 25
Full
Mar 4
Last Quarter
Mar 11
New

Hourly Weather History & Observations

Time (PST) Temp. Windchill Dew Point Humidity Pressure Visibility Wind Dir Wind Speed Gust Speed Precip Events Conditions
12:03 AM 32.0 °F 25.6 °F 30.2 °F 93% 30.23 in 9.0 mi NE 6.9 mph - N/A   Clear
12:13 AM 32.0 °F 25.6 °F 30.2 °F 93% 30.23 in 10.0 mi East 6.9 mph - N/A   Clear
12:58 AM 29.7 °F 24.7 °F 28.2 °F 94% 30.27 in 10.0 mi ENE 4.6 mph - N/A   Clear
1:58 AM 28.2 °F 23.1 °F 27.5 °F 97% 30.26 in 10.0 mi East 4.6 mph - N/A   Clear
2:58 AM 29.1 °F 23.0 °F 28.0 °F 96% 30.23 in 10.0 mi ENE 5.8 mph - N/A   Clear
3:58 AM 28.4 °F 22.2 °F 27.7 °F 97% 30.20 in 10.0 mi NE 5.8 mph - N/A   Clear
4:58 AM 27.5 °F 22.2 °F 27.0 °F 98% 30.20 in 10.0 mi NE 4.6 mph - N/A   Clear
5:58 AM 26.8 °F 20.2 °F 26.2 °F 98% 30.18 in 10.0 mi ENE 5.8 mph - N/A   Clear
6:07 AM 26.6 °F 20.0 °F 24.8 °F 93% 30.11 in 10.0 mi ENE 5.8 mph - N/A   Clear
6:24 AM 26.6 °F 19.1 °F 26.6 °F 100% 30.10 in 10.0 mi ENE 6.9 mph - N/A   Clear
6:58 AM 26.2 °F 19.6 °F 26.1 °F 99% 30.17 in 10.0 mi ENE 5.8 mph - 0.00 in   Clear
7:58 AM 28.4 °F 23.3 °F 28.4 °F 100% 30.17 in 10.0 mi ENE 4.6 mph - N/A   Clear
8:58 AM 33.8 °F - 31.8 °F 92% 30.15 in 10.0 mi ESE 2.3 mph - N/A   Partly Cloudy
9:58 AM 40.3 °F 34.4 °F 34.3 °F 79% 30.12 in 10.0 mi South 9.2 mph - N/A   Partly Cloudy
9:59 AM 41.0 °F 34.7 °F 33.8 °F 76% 30.06 in 10.0 mi South 10.4 mph - N/A   Partly Cloudy
10:09 AM 41.0 °F 35.8 °F 33.8 °F 76% 30.06 in 10.0 mi South 8.1 mph - N/A   Scattered Clouds
10:58 AM 42.6 °F 36.8 °F 35.6 °F 76% 30.10 in 10.0 mi SSW 10.4 mph - 0.00 in   Overcast
11:14 AM 42.8 °F 37.0 °F 35.6 °F 76% 30.04 in 10.0 mi SSW 10.4 mph - N/A   Overcast
11:24 AM 42.8 °F 36.6 °F 35.6 °F 76% 30.03 in 10.0 mi SSW 11.5 mph - N/A   Overcast
11:29 AM 42.8 °F 36.6 °F 35.6 °F 76% 30.03 in 10.0 mi SSW 11.5 mph - N/A   Overcast
11:38 AM 42.8 °F 35.8 °F 35.6 °F 76% 30.03 in 10.0 mi SSW 13.8 mph - N/A   Overcast
11:41 AM 42.8 °F 36.6 °F 35.6 °F 76% 30.03 in 10.0 mi SW 11.5 mph - N/A   Overcast
11:58 AM 42.1 °F 36.6 °F 35.8 °F 78% 30.08 in 10.0 mi SW 9.2 mph - 0.00 in   Overcast
12:21 PM 42.8 °F 37.5 °F 35.6 °F 76% 30.01 in 10.0 mi SSW 9.2 mph - N/A   Overcast
12:34 PM 42.8 °F 37.0 °F 35.6 °F 76% 30.00 in 10.0 mi South 10.4 mph - N/A   Overcast
12:58 PM 41.9 °F 35.0 °F 36.3 °F 81% 30.04 in 10.0 mi SSW 12.7 mph - 0.00 in   Overcast
1:08 PM 41.0 °F 33.9 °F 35.6 °F 81% 29.97 in 10.0 mi SSW 12.7 mph - N/A Rain Light Rain
1:20 PM 41.0 °F 33.9 °F 37.4 °F 87% 29.97 in 10.0 mi SSW 12.7 mph - N/A   Overcast
1:32 PM 41.0 °F 34.7 °F 37.4 °F 87% 29.95 in 10.0 mi South 10.4 mph - N/A Rain Light Rain
1:53 PM 41.0 °F 34.3 °F 37.4 °F 87% 29.96 in 10.0 mi SW 11.5 mph - N/A   Overcast
1:58 PM 41.0 °F 34.3 °F 37.4 °F 87% 30.02 in 10.0 mi SW 11.5 mph - 0.00 in   Overcast
2:13 PM 41.0 °F 33.9 °F 37.4 °F 87% 29.95 in 10.0 mi SSW 12.7 mph - N/A   Overcast
2:18 PM 41.0 °F 34.3 °F 37.4 °F 87% 29.96 in 10.0 mi SW 11.5 mph - N/A   Overcast
2:21 PM 41.0 °F 32.8 °F 37.4 °F 87% 29.96 in 10.0 mi SSW 16.1 mph - N/A   Overcast
2:39 PM 41.0 °F 34.3 °F 37.4 °F 87% 29.94 in 10.0 mi SSW 11.5 mph - N/A   Overcast
2:58 PM 41.0 °F 33.9 °F 37.6 °F 88% 30.01 in 10.0 mi SW 12.7 mph - 0.00 in   Overcast
3:21 PM 41.0 °F 35.2 °F 37.4 °F 87% 29.93 in 10.0 mi SSW 9.2 mph - N/A   Overcast
3:30 PM 42.8 °F 37.0 °F 37.4 °F 81% 29.93 in 10.0 mi SSW 10.4 mph - N/A   Overcast
3:35 PM 42.8 °F 36.2 °F 39.2 °F 87% 29.93 in 10.0 mi SW 12.7 mph - N/A   Overcast
3:55 PM 41.0 °F 33.5 °F 37.4 °F 87% 29.92 in 10.0 mi SSW 13.8 mph - N/A   Overcast
3:58 PM 41.5 °F 34.6 °F 37.6 °F 86% 29.98 in 10.0 mi SW 12.7 mph - 0.00 in   Overcast
4:01 PM 41.0 °F 33.9 °F 37.4 °F 87% 29.92 in 10.0 mi SW 12.7 mph - N/A   Overcast
4:58 PM 39.9 °F 33.4 °F 36.3 °F 87% 29.99 in 10.0 mi SW 10.4 mph - 0.00 in   Clear
5:58 PM 37.4 °F 30.3 °F 34.7 °F 90% 29.99 in 10.0 mi WSW 10.4 mph - N/A   Mostly Cloudy
6:13 PM 37.4 °F 30.3 °F 33.8 °F 87% 29.91 in 10.0 mi WSW 10.4 mph - N/A   Mostly Cloudy
6:23 PM 35.6 °F 28.6 °F 33.8 °F 93% 29.91 in 10.0 mi WSW 9.2 mph - N/A   Scattered Clouds
6:44 PM 33.8 °F 26.4 °F 32.0 °F 93% 29.90 in 10.0 mi SW 9.2 mph - N/A   Partly Cloudy
6:58 PM 34.9 °F 28.3 °F 33.6 °F 95% 29.96 in 10.0 mi SW 8.1 mph - 0.00 in   Partly Cloudy
6:59 PM 35.6 °F 29.2 °F 32.0 °F 87% 29.89 in 10.0 mi SW 8.1 mph - N/A   Partly Cloudy
7:58 PM 34.3 °F 25.0 °F 30.2 °F 85% 29.96 in 10.0 mi WSW 13.8 mph - 0.00 in   Scattered Clouds
8:02 PM 35.6 °F 26.2 °F 30.2 °F 81% 29.89 in 10.0 mi WSW 15.0 mph - N/A   Mostly Cloudy
8:26 PM 35.6 °F 26.2 °F 30.2 °F 81% 29.89 in 10.0 mi West 15.0 mph - N/A   Mostly Cloudy
8:45 PM 35.6 °F 26.6 °F 30.2 °F 81% 29.89 in 10.0 mi WSW 13.8 mph - N/A   Mostly Cloudy
8:46 PM 33.8 °F 24.3 °F 30.2 °F 87% 29.89 in 10.0 mi WSW 13.8 mph - N/A   Mostly Cloudy
8:58 PM 34.3 °F 24.2 °F 29.3 °F 82% 29.97 in 10.0 mi West 16.1 mph - 0.00 in   Scattered Clouds
9:17 PM 33.8 °F 24.3 °F 30.2 °F 87% 29.90 in 10.0 mi West 13.8 mph - N/A   Mostly Cloudy
9:21 PM 33.8 °F 24.3 °F 30.2 °F 87% 29.90 in 10.0 mi West 13.8 mph - N/A   Mostly Cloudy
9:58 PM 33.4 °F 23.9 °F 29.7 °F 86% 29.97 in 10.0 mi WSW 13.8 mph - 0.00 in   Overcast
10:58 PM 32.9 °F 23.2 °F 29.5 °F 87% 29.97 in 10.0 mi WSW 13.8 mph - N/A   Mostly Cloudy
11:04 PM 32.0 °F 22.1 °F 30.2 °F 93% 29.91 in 10.0 mi WSW 13.8 mph - N/A   Scattered Clouds
11:18 PM 32.0 °F 21.2 °F 28.4 °F 87% 29.91 in 10.0 mi WSW 16.1 mph - N/A   Partly Cloudy
11:58 PM 33.1 °F 25.5 °F 28.9 °F 85% 29.98 in 10.0 mi SW 9.2 mph - 0.00 in   Mostly Cloudy